Regional Weather Roundup
Issued by NWS

Home | Current Version | Previous Version | Text Only | Print | Product List | Glossary On
Versions: 1 2 3 4 5 6 7 8 9 10 11 12 13 14 15 16 17 18 19 20 21 22 23 24 25 26 27 28 29 30 31 32 33 34 35 36 37 38 39 40 41 42 43 44 45 46 47 48 49 50
000
ASUS44 KMEG 060510
RWRTN
TENNESSEE HOURLY STATE WEATHER ROUNDUP
NATIONAL WEATHER SERVICE MEMPHIS TN
1200 AM CDT WED MAY 06 2015

TNZ002-004-019-021-049-052-054-088>092-060600-
WEST TENNESSEE

CITY           SKY/WX    TMP DP  RH WIND       PRES   REMARKS
MEMPHIS INTL   CLEAR     73  54  51 SE5       30.16S
NWS MEMPHIS      N/A     63 N/A N/A MISG        N/A
JACKSON        CLEAR     59  56  89 CALM      30.18S
DYERSBURG      CLEAR     66  45  45 CALM      30.18S
PARIS          CLEAR     61  52  72 CALM      30.20R
LEXINGTON      CLEAR     57  57 100 CALM      30.19S
$$

TNZ008-025-027-028-033-062-065-066-060600-
NORTH MIDDLE TENNESSEE

CITY           SKY/WX    TMP DP  RH WIND       PRES   REMARKS
NASHVILLE      MOCLDY    67  57  70 CALM      30.21S
CLARKSVILLE    CLEAR     60  56  86 CALM      30.20R
SMYRNA         MOCLDY    65  59  81 CALM      30.22S
COOKEVILLE     MOCLDY    63  61  94 CALM      30.23S
CROSSVILLE     CLOUDY    65  54  67 CALM      30.28S
$$

TNZ061-075-076-078-094-096-097-060600-
SOUTH MIDDLE TENNESSEE

CITY           SKY/WX    TMP DP  RH WIND       PRES   REMARKS
FAYETTEVILLE     N/A     64  54  68 CALM      30.23S
TULLAHOMA      PTCLDY    63  55  77 CALM      30.25S
WINCHESTER     MOCLDY    66  57  72 CALM      30.24S
MCMINNVILLE    CLOUDY    64  63  94 N16       30.24S
COLUMBIA       CLEAR     61  55  82 S3        30.20S
SHELBYVILLE    MOCLDY    64  59  82 E3        30.23S
$$

TNZ017-018-042-046-047-060600-
NORTHEAST TENNESSEE

CITY           SKY/WX    TMP DP  RH WIND       PRES   REMARKS
TRI CITIES     PTCLDY    64  55  72 CALM      30.27R
ELIZABETHTON   CLEAR     59  54  82 NE3       30.28S
$$

TNZ012-013-036-069-073-074-060600-
CENTRAL EAST TENNESSEE

CITY           SKY/WX    TMP DP  RH WIND       PRES   REMARKS
KNOXVILLE      CLOUDY    70  55  59 SW3       30.24R
OAK RIDGE      CLOUDY    69  59  70 CALM      30.26R
MORRISTOWN     CLOUDY    64  55  72 CALM      30.27S
$$

TNZ083-085-099-060600-
SOUTHEAST TENNESSEE

CITY           SKY/WX    TMP DP  RH WIND       PRES   REMARKS
CHATTANOOGA    CLOUDY    71  56  58 CALM      30.24S
$$

SKY/WX REPORTED AS FAIR MEANS FEW OR NO CLOUDS BELOW
12 THOUSAND FEET.



USA.gov is the U.S. government's official web portal to all federal, state and local government web resources and services.